• Currently

    Reported at Covington / Cincinnati, Cincinnati / Northern Kentucky International Airport, KY
    6:52 AM EST SAT JUL 22 2017
  • 79°F26°C
  • Fog And Mist
    Fog And Mist
  • Feels Like:83°F28°CDew Point:77°F25°CHumidity:94% Winds: Calm Calm
    Pressure:29.94 in1014 hPaVisibility:5.00 miles8045.00 meters
Time Weather Temp Dew Point
Humidity Winds Visibility Pressure Precipitation
1 hr 24 hr
Saturday, July 22
08:33 08:33 Sunny Sunny 81°F27°C 75°F24°C 84% SW 5 mphSW 7 kph 7.0 miles11.3 km 29.94 in1014 hPa 0.00 in0.00 mm --
08:13 08:13 Sunny Sunny 79°F26°C 73°F23°C 84% CalmCalm 7.0 miles11.3 km 29.94 in1014 hPa 0.00 in0.00 mm --
07:53 07:53 Sunny Sunny 79°F26°C 73°F23°C 84% SSW 3 mphSSW 6 kph 7.0 miles11.3 km 29.94 in1014 hPa 0.00 in0.00 mm --
07:33 07:33 Sunny Sunny 79°F26°C 73°F23°C 84% SSW 3 mphSSW 6 kph 7.0 miles11.3 km 29.94 in1014 hPa 0.00 in0.00 mm --
07:13 07:13 Sunny Sunny 77°F25°C 73°F23°C 89% SW 3 mphSW 6 kph 7.0 miles11.3 km 29.94 in1014 hPa 0.00 in0.00 mm --
06:53 06:53 Sunny Sunny 77°F25°C 73°F23°C 89% SW 3 mphSW 6 kph 7.0 miles11.3 km 29.94 in1014 hPa 0.00 in0.00 mm --
06:32 06:32 Clear Clear 77°F25°C 73°F23°C 89% SW 3 mphSW 6 kph 7.0 miles11.3 km 29.94 in1014 hPa 0.00 in0.00 mm --
06:13 06:13 Clear Clear 77°F25°C 73°F23°C 89% CalmCalm 7.0 miles11.3 km 29.94 in1014 hPa 0.00 in0.00 mm --
05:53 05:53 Clear Clear 77°F25°C 73°F23°C 89% SSW 5 mphSSW 7 kph 7.0 miles11.3 km 29.94 in1014 hPa 0.00 in0.00 mm --
05:33 05:33 Partly Cloudy Partly Cloudy 77°F25°C 73°F23°C 89% SSW 3 mphSSW 6 kph 10.0 miles16.1 km 29.94 in1014 hPa 0.00 in0.00 mm --
05:13 05:13 Partly Cloudy Partly Cloudy 77°F25°C 73°F23°C 89% CalmCalm 10.0 miles16.1 km 29.94 in1014 hPa 0.00 in0.00 mm --
04:53 04:53 Clear Clear 77°F25°C 73°F23°C 89% SSW 3 mphSSW 6 kph 10.0 miles16.1 km 29.94 in1014 hPa 0.00 in0.00 mm --
04:33 04:33 Clear Clear 77°F25°C 73°F23°C 89% CalmCalm 10.0 miles16.1 km 29.94 in1014 hPa 0.00 in0.00 mm --
04:13 04:13 Clear Clear 77°F25°C 73°F23°C 89% S 3 mphS 6 kph 10.0 miles16.1 km 29.94 in1014 hPa 0.00 in0.00 mm --
03:53 03:53 Partly Cloudy Partly Cloudy 77°F25°C 73°F23°C 89% SSW 3 mphSSW 6 kph 10.0 miles16.1 km 29.94 in1014 hPa 0.00 in0.00 mm --
03:33 03:33 Partly Cloudy Partly Cloudy 77°F25°C 73°F23°C 89% CalmCalm 7.0 miles11.3 km 29.94 in1014 hPa 0.00 in0.00 mm --
03:13 03:13 Clear Clear 77°F25°C 73°F23°C 89% CalmCalm 7.0 miles11.3 km 29.94 in1014 hPa 0.00 in0.00 mm --
02:53 02:53 Clear Clear 77°F25°C 73°F23°C 89% S 3 mphS 6 kph 10.0 miles16.1 km 29.94 in1014 hPa 0.00 in0.00 mm --
02:33 02:33 Clear Clear 77°F25°C 73°F23°C 89% SSE 3 mphSSE 6 kph 10.0 miles16.1 km 29.94 in1014 hPa 0.00 in0.00 mm --
02:13 02:13 Clear Clear 79°F26°C 73°F23°C 84% SSE 3 mphSSE 6 kph 10.0 miles16.1 km 29.94 in1014 hPa 0.00 in0.00 mm --
01:53 01:53 Clear Clear 79°F26°C 73°F23°C 84% SSE 5 mphSSE 7 kph 10.0 miles16.1 km 29.94 in1014 hPa 0.00 in0.00 mm --
01:33 01:33 Partly Cloudy Partly Cloudy 79°F26°C 73°F23°C 84% SSE 6 mphSSE 9 kph 10.0 miles16.1 km 29.94 in1014 hPa 0.00 in0.00 mm --
01:13 01:13 Partly Cloudy Partly Cloudy 79°F26°C 75°F24°C 89% CalmCalm 7.0 miles11.3 km 29.97 in1015 hPa 0.00 in0.00 mm --
00:54 00:54 Partly Cloudy Partly Cloudy 79°F26°C 73°F23°C 84% CalmCalm 7.0 miles11.3 km 29.97 in1015 hPa 0.00 in0.00 mm --
00:33 00:33 Mostly Cloudy Mostly Cloudy 79°F26°C 73°F23°C 84% CalmCalm 10.0 miles16.1 km 30 in1016 hPa 0.00 in0.00 mm --
00:13 00:13 Partly Cloudy Partly Cloudy 79°F26°C 73°F23°C 84% CalmCalm 7.0 miles11.3 km 30 in1016 hPa 0.00 in0.00 mm --